Total_Precipitation_Accumulation
0.00 0.01 0.07 0.19 0.32 0.61 0.78 0.53 0.42 0.31 0.32 0.38 0.41 0.39 0.36 0.30 0.36 0.32 0.11 0.03 0.01 0.00 0.01 0.05 0.13 0.13 0.10 0.07 0.08 0.08 0.09 0.09 0.09 0.08 0.07 0.05 0.04 0.03 0.02 0.02 0.02 0.02 0.03 0.03 0.03 0.03 0.02 0.02 0.02
0.00 0.01 0.06 0.14 0.37 0.76 0.86 0.51 0.36 0.29 0.34 0.35 0.32 0.36 0.41 0.37 0.21 0.11 0.10 0.04 0.01 0.01 0.01 0.01 0.07 0.12 0.11 0.09 0.09 0.08 0.08 0.08 0.08 0.07 0.06 0.04 0.03 0.02 0.02 0.02 0.03 0.03 0.04 0.04 0.04 0.03 0.02 0.02 0.02
0.00 0.01 0.04 0.10 0.27 0.53 0.60 0.43 0.34 0.27 0.36 0.51 0.42 0.34 0.35 0.31 0.21 0.13 0.07 0.03 0.01 0.01 0.01 0.02 0.06 0.09 0.11 0.10 0.09 0.08 0.07 0.07 0.06 0.06 0.05 0.04 0.03 0.03 0.03 0.03 0.04 0.04 0.05 0.06 0.05 0.04 0.03 0.02 0.02
0.00 0.02 0.04 0.08 0.14 0.26 0.33 0.34 0.33 0.36 0.54 0.69 0.54 0.32 0.25 0.20 0.18 0.09 0.03 0.01 0.01 0.01 0.01 0.04 0.07 0.09 0.10 0.10 0.09 0.07 0.06 0.06 0.06 0.05 0.05 0.04 0.04 0.04 0.04 0.05 0.06 0.06 0.07 0.09 0.08 0.06 0.04 0.03 0.02
0.00 0.01 0.03 0.06 0.11 0.16 0.19 0.25 0.39 0.42 0.63 0.70 0.49 0.33 0.24 0.16 0.13 0.06 0.02 0.01 0.01 0.02 0.03 0.05 0.09 0.11 0.10 0.10 0.09 0.09 0.07 0.07 0.06 0.06 0.05 0.05 0.06 0.07 0.08 0.08 0.09 0.08 0.10 0.12 0.12 0.10 0.07 0.05 0.04
0.00 0.01 0.01 0.03 0.05 0.08 0.12 0.21 0.35 0.47 0.64 0.71 0.53 0.49 0.29 0.21 0.16 0.09 0.04 0.02 0.03 0.03 0.03 0.05 0.10 0.13 0.13 0.12 0.11 0.11 0.10 0.09 0.09 0.08 0.08 0.08 0.09 0.11 0.13 0.14 0.15 0.16 0.16 0.17 0.17 0.14 0.12 0.09 0.07
0.00 0.00 0.00 0.01 0.02 0.07 0.13 0.21 0.37 0.51 0.65 0.83 0.72 0.60 0.36 0.29 0.24 0.17 0.08 0.04 0.04 0.04 0.04 0.06 0.07 0.10 0.13 0.15 0.15 0.13 0.13 0.13 0.13 0.12 0.11 0.11 0.11 0.12 0.14 0.18 0.19 0.20 0.22 0.22 0.20 0.20 0.19 0.17 0.13
0.00 0.00 0.00 0.00 0.01 0.04 0.11 0.21 0.36 0.50 0.71 0.81 0.68 0.65 0.49 0.31 0.30 0.22 0.14 0.10 0.09 0.07 0.08 0.08 0.09 0.12 0.12 0.12 0.13 0.14 0.14 0.13 0.13 0.14 0.15 0.15 0.15 0.17 0.21 0.23 0.25 0.28 0.28 0.27 0.29 0.31 0.32 0.29 0.23
0.00 0.00 0.00 0.00 0.01 0.03 0.12 0.28 0.41 0.44 0.54 0.79 0.98 0.76 0.53 0.38 0.42 0.35 0.25 0.21 0.16 0.12 0.14 0.14 0.15 0.15 0.16 0.16 0.19 0.25 0.25 0.26 0.25 0.28 0.29 0.29 0.32 0.38 0.46 0.42 0.46 0.49 0.54 0.56 0.55 0.56 0.58 0.54 0.39
0.00 0.00 0.00 0.00 0.00 0.03 0.13 0.33 0.48 0.55 0.70 0.92 1.08 0.90 0.65 0.51 0.58 0.61 0.45 0.30 0.25 0.23 0.21 0.21 0.22 0.23 0.26 0.27 0.35 0.52 0.57 0.68 0.66 0.72 0.74 0.75 0.68 0.57 0.50 0.56 0.74 0.82 0.98 1.09 1.18 1.27 1.11 0.89 0.68
0.00 0.00 0.00 0.00 0.00 0.05 0.15 0.18 0.27 0.50 0.95 1.21 1.40 1.09 0.72 0.66 0.71 0.81 0.72 0.51 0.42 0.42 0.34 0.31 0.34 0.35 0.42 0.49 0.54 0.66 0.76 0.92 0.99 0.97 1.08 1.17 1.04 0.86 0.76 0.86 1.05 1.16 1.34 1.43 1.72 1.89 1.36 1.28 1.36
0.00 0.00 0.00 0.00 0.00 0.02 0.09 0.17 0.30 0.57 0.95 1.10 1.01 0.91 0.77 0.81 0.80 0.90 0.91 0.77 0.69 0.61 0.53 0.57 0.59 0.56 0.59 0.70 0.78 0.75 0.73 0.81 0.94 1.03 1.12 1.29 1.20 1.09 1.12 1.15 1.19 1.41 1.56 1.80 1.83 1.95 1.94 1.96 1.85
0.00 0.00 0.00 0.00 0.01 0.02 0.07 0.17 0.27 0.47 0.68 0.70 0.55 0.66 0.90 0.93 0.93 1.01 1.03 0.97 0.91 0.89 0.88 0.87 0.88 0.90 0.97 1.00 0.97 0.78 0.74 0.75 0.79 0.90 0.98 1.26 1.47 1.43 1.55 1.38 1.34 1.21 1.51 1.87 2.08 2.14 2.30 2.38 2.33
0.00 0.00 0.01 0.01 0.02 0.02 0.06 0.12 0.27 0.61 0.61 0.53 0.59 0.72 0.90 1.15 1.06 1.08 1.19 1.17 1.09 1.17 1.28 1.28 1.34 1.37 1.37 1.26 1.12 0.97 0.89 0.85 0.82 0.91 1.10 1.56 1.73 1.64 1.70 1.65 1.57 1.34 1.49 1.82 2.17 2.26 2.47 2.42 2.44
0.00 0.02 0.07 0.05 0.03 0.03 0.07 0.28 0.49 0.65 0.62 0.59 0.72 0.79 0.96 1.31 1.26 1.30 1.37 1.34 1.37 1.53 1.68 1.79 1.88 1.77 1.71 1.59 1.34 1.12 0.94 0.83 0.92 1.11 1.33 1.63 1.79 1.88 2.06 1.95 1.63 1.48 1.67 1.86 1.88 2.00 2.46 2.30 2.23
0.01 0.05 0.20 0.12 0.04 0.05 0.13 0.49 0.68 0.72 0.72 0.72 0.79 0.99 1.07 1.33 1.25 1.18 1.27 1.42 1.60 1.86 2.21 2.44 2.48 2.47 2.40 2.05 1.71 1.47 1.31 1.22 1.30 1.40 1.38 1.36 1.53 1.71 1.89 1.62 1.31 1.48 1.76 1.90 1.80 1.80 2.16 2.20 2.18
0.05 0.07 0.16 0.14 0.08 0.07 0.16 0.52 0.56 0.45 0.72 0.97 1.07 1.19 1.13 1.16 1.26 1.23 1.27 1.48 1.83 2.23 2.71 3.08 3.22 3.04 2.74 2.18 1.77 1.46 1.49 1.49 1.49 1.41 1.23 1.10 1.03 1.08 1.19 1.03 0.98 1.21 1.48 1.48 1.31 1.44 1.70 1.78 1.85
0.03 0.07 0.12 0.16 0.12 0.13 0.23 0.47 0.58 0.48 0.67 0.87 0.91 1.16 1.16 1.08 1.17 1.32 1.41 1.56 1.94 2.38 2.84 3.17 3.34 3.02 2.47 2.08 1.88 1.58 1.47 1.40 1.38 1.23 1.02 0.83 0.77 0.75 0.83 0.82 0.79 0.88 0.92 0.94 1.10 1.25 1.39 1.28 1.35
0.03 0.06 0.14 0.16 0.14 0.20 0.34 0.58 0.70 0.62 0.63 0.65 0.72 0.91 0.90 0.90 1.01 1.26 1.48 1.70 2.11 2.71 3.22 3.33 3.04 2.38 1.94 1.66 1.51 1.30 1.14 1.02 0.95 0.87 0.78 0.69 0.69 0.64 0.64 0.61 0.63 0.69 0.68 0.68 0.82 0.95 0.95 0.79 0.94
0.04 0.08 0.15 0.15 0.11 0.13 0.32 0.61 0.67 0.69 0.73 0.66 0.68 0.76 0.65 0.70 0.90 1.31 1.77 2.14 2.48 2.71 2.81 2.62 2.19 1.56 1.20 0.98 0.84 0.68 0.57 0.54 0.54 0.52 0.52 0.53 0.54 0.54 0.53 0.50 0.48 0.48 0.52 0.54 0.59 0.71 0.71 0.62 0.74
0.07 0.07 0.13 0.16 0.12 0.13 0.31 0.68 0.78 0.73 0.70 0.64 0.52 0.53 0.61 0.74 1.15 1.75 2.30 2.62 2.59 2.40 1.99 1.51 1.11 0.78 0.66 0.52 0.44 0.32 0.26 0.24 0.25 0.27 0.30 0.33 0.33 0.33 0.33 0.32 0.32 0.34 0.39 0.42 0.48 0.56 0.59 0.53 0.51
0.08 0.06 0.05 0.06 0.10 0.29 0.40 0.76 0.79 0.78 0.73 0.51 0.48 0.55 0.65 0.85 1.31 1.90 2.27 2.22 2.05 1.71 1.20 0.84 0.62 0.46 0.37 0.31 0.30 0.26 0.21 0.20 0.21 0.22 0.23 0.24 0.22 0.23 0.23 0.21 0.21 0.22 0.25 0.33 0.35 0.44 0.54 0.53 0.43
0.05 0.04 0.04 0.07 0.14 0.27 0.37 0.57 0.74 0.73 0.75 0.40 0.34 0.45 0.55 0.75 0.95 1.11 1.19 1.11 0.95 0.75 0.70 0.64 0.52 0.45 0.41 0.35 0.31 0.27 0.22 0.20 0.20 0.21 0.22 0.25 0.25 0.23 0.23 0.22 0.21 0.21 0.21 0.24 0.28 0.36 0.46 0.52 0.47
0.04 0.05 0.11 0.19 0.30 0.53 0.51 0.61 0.79 0.76 0.65 0.32 0.19 0.25 0.43 0.54 0.54 0.50 0.43 0.36 0.35 0.32 0.33 0.33 0.33 0.39 0.42 0.39 0.33 0.30 0.26 0.22 0.20 0.18 0.19 0.20 0.23 0.25 0.25 0.25 0.26 0.26 0.26 0.26 0.26 0.28 0.33 0.45 0.53
0.04 0.08 0.29 0.57 0.79 0.78 0.44 0.48 0.75 0.73 0.46 0.21 0.10 0.09 0.17 0.30 0.37 0.39 0.36 0.29 0.26 0.22 0.20 0.18 0.18 0.20 0.22 0.24 0.25 0.25 0.25 0.22 0.20 0.18 0.15 0.17 0.17 0.20 0.22 0.23 0.25 0.27 0.30 0.31 0.28 0.28 0.28 0.36 0.46
0.05 0.06 0.16 0.28 0.33 0.40 0.42 0.80 0.89 0.48 0.24 0.12 0.05 0.04 0.09 0.16 0.22 0.25 0.23 0.21 0.17 0.14 0.12 0.10 0.10 0.10 0.09 0.10 0.12 0.13 0.16 0.17 0.18 0.21 0.17 0.17 0.18 0.20 0.20 0.20 0.19 0.22 0.27 0.32 0.34 0.32 0.33 0.36 0.38
0.04 0.03 0.05 0.07 0.12 0.29 0.51 0.74 0.54 0.27 0.18 0.07 0.03 0.02 0.04 0.08 0.10 0.10 0.10 0.09 0.08 0.07 0.08 0.07 0.06 0.05 0.04 0.04 0.06 0.07 0.10 0.13 0.15 0.17 0.17 0.17 0.22 0.21 0.20 0.20 0.20 0.22 0.24 0.28 0.32 0.32 0.34 0.38 0.38
0.05 0.04 0.04 0.06 0.12 0.24 0.40 0.67 0.59 0.29 0.16 0.05 0.02 0.02 0.04 0.05 0.06 0.06 0.05 0.05 0.04 0.04 0.04 0.04 0.04 0.03 0.02 0.02 0.02 0.02 0.04 0.08 0.10 0.11 0.13 0.15 0.16 0.19 0.20 0.20 0.19 0.20 0.21 0.23 0.26 0.28 0.35 0.42 0.47
0.06 0.05 0.05 0.05 0.06 0.10 0.24 0.39 0.25 0.15 0.07 0.02 0.01 0.01 0.02 0.03 0.03 0.03 0.03 0.02 0.02 0.02 0.02 0.03 0.03 0.03 0.02 0.02 0.01 0.01 0.03 0.05 0.07 0.10 0.13 0.15 0.13 0.13 0.14 0.16 0.18 0.19 0.21 0.25 0.31 0.34 0.38 0.48 0.60
0.07 0.06 0.06 0.07 0.06 0.05 0.10 0.15 0.10 0.08 0.05 0.02 0.01 0.00 0.01 0.01 0.01 0.01 0.01 0.01 0.01 0.01 0.01 0.02 0.02 0.02 0.02 0.02 0.02 0.01 0.02 0.02 0.04 0.07 0.10 0.11 0.12 0.12 0.12 0.13 0.14 0.14 0.15 0.21 0.31 0.42 0.44 0.47 0.55